This demonstration page uses our WeatherBlox Daily Observations layout. Learn more.

Left ArrowRight Arrow

Hourly Observations for December 11, 2020

Temp ( °F °C ) Dew Point ( °F °C ) Humidity (%) Winds ( mph kmh ) Pressure ( in mb ) Visibility ( mi km ) Precip ( " mm )
12:52 am 00:52 Cloudy 37 2.8 31 -0.6 79 79 NNW 10 17 29.96 1015 10 16 0.00 0.00
1:52 am 01:52 Cloudy 36 2.2 31 -0.6 82 82 N 12 19 29.92 1013 10 16 0.00 0.00
2:52 am 02:52 Cloudy 37 2.8 31 -0.6 79 79 N 12 19 29.93 1014 10 16 0.00 0.00
3:52 am 03:52 Cloudy 36 2.2 31 -0.6 82 82 N 16 26 29.91 1013 10 16 0.00 0.00
4:52 am 04:52 Cloudy 37 2.8 31 -0.6 79 79 NNE 13 20 29.93 1014 10 16 0.00 0.00
5:00 am 05:00 Cloudy 37 2.8 31 -0.6 79 79 NNE 13 20 29.95 1014 10 16 0.00 0.00
5:52 am 05:52 Cloudy 37 2.8 31 -0.6 79 79 NNE 17 28 29.94 1014 10 16 0.00 0.00
6:26 am 06:26 Cloudy 37 2.8 31 -0.6 79 79 N 17 28 29.96 1015 10 16 0.00 0.00
6:52 am 06:52 Cloudy 37 2.8 31 -0.6 79 79 NNE 17 28 29.93 1014 10 16 0.00 0.00
7:52 am 07:52 Cloudy 36 2.2 31 -0.6 82 82 NNE 15 24 29.93 1013 10 16 0.00 0.00
8:47 am 08:47 Cloudy 37 3 30 -1 75 75 NNE 17 28 29.95 1014 10 16 0.00 0.00
8:52 am 08:52 Cloudy 37 2.8 31 -0.6 79 79 NNE 16 26 29.93 1013 10 16 0.00 0.00
9:50 am 09:50 Cloudy 37 3 30 -1 75 75 NNE 20 31 29.95 1014 10 16 0.00 0.00
9:52 am 09:52 Cloudy 37 2.8 31 -0.6 79 79 NNE 20 31 29.93 1014 10 16 0.00 0.00
10:06 am 10:06 Cloudy 37 2.8 31 -0.6 79 79 NNE 16 26 29.96 1015 10 16 0.00 0.00
10:52 am 10:52 Cloudy 38 3.3 31 -0.6 76 76 NNE 16 26 29.93 1014 10 16 0.00 0.00
11:42 am 11:42 Cloudy with Light Rain 37 2.8 32 0 82 82 NNE 15 24 29.93 1014 10 16 0.00 0.00
11:52 am 11:52 Cloudy with Light Rain 37 2.8 33 0.6 86 86 NNE 15 24 29.90 1013 10 16 0.00 0.00
12:52 pm 12:52 Cloudy with Light Rain 37 2.8 34 1.1 89 89 NNE 17 28 29.86 1011 10 16 0.00 0.00
1:52 pm 13:52 Cloudy with Light Rain 37 2.8 34 1.1 89 89 NNE 12 19 29.85 1011 10 16 0.01 0.25
2:52 pm 14:52 Cloudy with Light Rain 37 2.8 35 1.7 93 93 N 12 19 29.85 1011 7 11 0.02 0.51
3:52 pm 15:52 Cloudy with Mist and Fog 37 2.8 35 1.7 93 93 NNE 13 20 29.85 1011 5 8 0.06 1.52
4:52 pm 16:52 Cloudy 36 2.2 34 1.1 93 93 N 18 30 29.85 1011 10 16 0.03 0.76
5:37 pm 17:37 Cloudy with Light Rain/Snow 35 1.7 33 0.6 93 93 N 16 26 29.89 1012 10 16 0.03 0.76
5:52 pm 17:52 Cloudy with Light Rain/Snow 35 1.7 33 0.6 93 93 N 17 28 29.88 1012 6 10 0.04 1.02
6:52 pm 18:52 Cloudy with Light Rain/Snow 34 1.1 33 0.6 97 97 NNE 22 35 29.88 1012 4 6 0.05 1.27
7:48 pm 19:48 Windy with Snow Likely 34 1 32 0 93 93 N 22 35 29.90 1012 4 6 0.06 1.52
7:52 pm 19:52 Windy with Snow Likely 34 1.1 32 0 92 92 NNE 21 33 29.88 1012 4 6 0.06 1.52
8:52 pm 20:52 Windy with Snow Likely 34 1.1 32 0 92 92 N 21 33 29.89 1012 3 4 0.04 1.02
9:30 pm 21:30 Windy with Snow Likely 33 0.6 32 0 96 96 N 21 33 29.92 1013 2 3 0.03 0.76
9:37 pm 21:37 Windy with Snow Likely 33 0.6 32 0 96 96 N 20 31 29.92 1013 2 2 0.04 1.02
9:52 pm 21:52 Windy with Snow Likely 33 0.6 32 0 96 96 NNE 21 33 29.90 1013 2 3 0.05 1.27
10:52 pm 22:52 Mostly Cloudy with Light Snow 33 0.6 32 0 96 96 N 23 37 29.91 1013 1 2 0.04 1.02
11:09 pm 23:09 Windy with Snow Likely 33 0.6 32 0 96 96 NNE 20 31 29.94 1014 1 2 0.01 0.25
11:27 pm 23:27 Cloudy with Light Snow 33 0.6 32 0 96 96 N 14 22 29.94 1014 1 2 0.02 0.51
11:52 pm 23:52 Cloudy with Light Snow 33 0.6 32 0 96 96 N 17 28 29.91 1013 1 2 0.04 1.02

Powered by AerisWeather